Simultaneous Nadir Overpasses (SNOs) Predictions

Prediction of SNOs over PacNW region [( 10.00, 139.50) to ( 22.70, 165.60)] between AQUA and NPP Satellites:

Table of predicted SNOs over PacNW region for the next 30.0 days since TLE Epoch: 11/13/2021
Index Date (AQUA) Time (AQUA) AQUA Lat,Lon Date (NPP) Time (NPP) NPP Lat,Lon Distance(km) Time Diff (sec)
1 11/14/2021 03:31:59 22.69, 147.50 11/14/2021 03:28:50 22.31, 145.62 198.22 189
2 11/19/2021 15:59:36 22.63, 147.49 11/19/2021 16:03:05 24.85, 144.74 373.09 209
3 11/22/2021 02:42:33 22.65, 159.88 11/22/2021 02:39:04 25.19, 157.55 368.51 209
4 11/27/2021 15:10:10 22.60, 159.85 11/27/2021 15:12:57 23.23, 156.99 301.55 167
5 11/30/2021 03:32:00 22.65, 147.53 11/30/2021 03:29:09 22.26, 145.58 204.64 171
6 12/05/2021 15:59:35 22.60, 147.51 12/05/2021 16:03:03 26.03, 145.00 458.24 208
7 12/08/2021 02:42:31 22.64, 159.91 12/08/2021 02:39:02 23.98, 157.82 260.83 209
